Location: Memphis
(29.8667°N, 31.2500°E)
Time: 08:43:25
(UTC+00:00)

CZ-3A R/B - Pass Details

Date: 03 March 2021
Orbit: 341 x 36833 km, 25.0° (Epoch: 14 April)

Event Time Altitude Azimuth Distance (km) Brightness Sun altitude
Rises 17:44:16 0° 262° (W) 11,744 9.8 -24.3°
Reaches altitude 10° 17:57:48 10° 260° (W) 6,559 8.1 -27.2°
Enters shadow 18:10:09 53° 201° (SSW) 1,100 3.2 -29.9°
